Barcelona, Spain

3:17 PM CET on February 24, 2018 (GMT +0100)
El Prat

Weather History for LEBL - February, 2018

Change the Weather History Date:

Tuesday, February 20, 2018

  Actual Average Record
Temperature  
Mean Temperature 54 °F -  
Max Temperature 59 °F 58 °F 64 °F (1997)
Min Temperature 48 °F 44 °F 37 °F (2016)
Degree Days  
Heating Degree Days 10    
Growing Degree Days 4 (Base 50)    
Moisture  
Dew Point 47 °F    
Average Humidity 76    
Maximum Humidity 94    
Minimum Humidity 52    
Precipitation  
Precipitation 0.00 in 0.06 in - ()
Sea Level Pressure  
Sea Level Pressure 29.86 in    
Wind  
Wind Speed 5 mph ()    
Max Wind Speed 10 mph    
Max Gust Speed 20 mph    
Visibility 7.7 miles    
Events      
Averages and records for this station are not official NWS values.
T = Trace of Precipitation, MM = Missing Value Source: Averaged Metar Reports

Daily Weather History Graph

Daily Weather History Graph

Search for Another Location

Airport or City:

Trip Planner

Search our weather history database for the weather conditions in past years. The results will help you decide how hot, cold, wet, or windy it might be!

Date:

Astronomy

Feb. 20, 2018 Rise Set
Actual Time 7:39 AM CET 6:31 PM CET
Civil Twilight 7:11 AM CET 6:59 PM CET
Nautical Twilight 6:39 AM CET 7:31 PM CET
Astronomical Twilight 6:07 AM CET 8:03 PM CET
Moon 10:11 AM CET (2/20) 11:18 PM CET (2/20)
Length of Visible Light 11h 47m
Length of Day
10h 51m
Waxing Crescent, 20% of the Moon is Illuminated
Feb 20
Waxing Crescent
Feb 23
First Quarter
Mar 2
Full
Mar 9
Last Quarter
Mar 17
New

Hourly Weather History & Observations

Time (CET) Temp. Dew Point Humidity Pressure Visibility Wind Dir Wind Speed Gust Speed Precip Events Conditions
12:00 AM 53 °F 47 °F 75% 29.97 in 12 mi North 4.6 mph - -  
12:00 AM 51.8 °F 46.4 °F 82% 29.95 in 6.2 mi Variable 1.2 mph - N/A   Mostly Cloudy
12:30 AM 51.8 °F 46.4 °F 82% 29.95 in 6.2 mi North 3.5 mph - N/A   Mostly Cloudy
1:00 AM 53 °F 47 °F 75% 29.97 in 12 mi North 4.6 mph - -   Overcast
1:00 AM 51.8 °F 46.4 °F 82% 29.95 in 6.2 mi NW 4.6 mph - N/A   Mostly Cloudy
1:30 AM 51.8 °F 46.4 °F 82% 29.95 in 6.2 mi NNW 6.9 mph - N/A   Mostly Cloudy
2:00 AM 53 °F 47 °F 75% 29.95 in 12 mi NNW 3.5 mph - -  
2:00 AM 51.8 °F 46.4 °F 82% 29.95 in 6.2 mi NW 5.8 mph - N/A   Mostly Cloudy
2:30 AM 51.8 °F 46.4 °F 82% 29.92 in 6.2 mi NW 2.3 mph - N/A   Mostly Cloudy
3:00 AM 52 °F 47 °F 79% 29.93 in 19 mi West 6.9 mph - -  
3:00 AM 51.8 °F 46.4 °F 82% 29.92 in 6.2 mi Calm Calm - N/A   Mostly Cloudy
3:30 AM 51.8 °F 46.4 °F 82% 29.92 in 6.2 mi Variable 2.3 mph - N/A   Mostly Cloudy
4:00 AM 53 °F 47 °F 73% 29.91 in 12 mi North 2.3 mph - -   Partly Cloudy
4:00 AM 51.8 °F 46.4 °F 82% 29.89 in 6.2 mi Variable 1.2 mph - N/A   Scattered Clouds
4:30 AM 51.8 °F 46.4 °F 82% 29.89 in 6.2 mi NNW 4.6 mph - N/A   Scattered Clouds
5:00 AM 52 °F 47 °F 77% 29.90 in 9 mi North 6.9 mph - -  
5:00 AM 51.8 °F 46.4 °F 82% 29.89 in 6.2 mi NW 5.8 mph - N/A   Partly Cloudy
5:30 AM 51.8 °F 46.4 °F 82% 29.89 in 6.2 mi NNW 6.9 mph - N/A   Partly Cloudy
6:00 AM 52 °F 47 °F 77% 29.89 in 7 mi North 8.1 mph - -  
6:00 AM 51.8 °F 46.4 °F 82% 29.89 in 6.2 mi NNW 5.8 mph - N/A   Partly Cloudy
6:30 AM 51.8 °F 46.4 °F 82% 29.86 in 6.2 mi NW 6.9 mph - N/A   Partly Cloudy
7:00 AM 51 °F 47 °F 80% 29.88 in 7 mi North 3.5 mph - -   Scattered Clouds
7:00 AM 50.0 °F 46.4 °F 87% 29.86 in 6.2 mi NNW 10.4 mph - N/A   Partly Cloudy
7:30 AM 51.8 °F 46.4 °F 82% 29.89 in 6.2 mi NNW 8.1 mph - N/A   Partly Cloudy
8:00 AM 51 °F 46 °F 79% 29.89 in 6 mi NNE 4.6 mph - -  
8:00 AM 50.0 °F 46.4 °F 87% 29.89 in 5.6 mi NW 6.9 mph - N/A   Partly Cloudy
8:30 AM 51.8 °F 46.4 °F 82% 29.89 in 5.6 mi NW 8.1 mph 19.6 mph N/A   Partly Cloudy
9:00 AM 51.8 °F 46.4 °F 82% 29.89 in 5.6 mi NW 5.8 mph - N/A   Partly Cloudy
9:30 AM 53.6 °F 44.6 °F 72% 29.89 in 5.6 mi NW 6.9 mph - N/A   Partly Cloudy
10:00 AM 55 °F 46 °F 63% 29.89 in 6 mi NNW 8.1 mph - -   Overcast
10:00 AM 53.6 °F 44.6 °F 72% 29.89 in 5.6 mi NNW 6.9 mph - N/A   Partly Cloudy
10:30 AM 53.6 °F 46.4 °F 77% 29.89 in 5.6 mi NW 5.8 mph - N/A   Partly Cloudy
11:00 AM 56 °F 46 °F 60% 29.89 in 9 mi North 5.8 mph - -  
11:00 AM 55.4 °F 46.4 °F 72% 29.86 in 5.6 mi NNW 6.9 mph 18.4 mph N/A   Partly Cloudy
11:30 AM 55.4 °F 46.4 °F 72% 29.86 in 6.2 mi NNW 4.6 mph - N/A   Partly Cloudy
12:00 PM 60 °F 47 °F 52% 29.87 in 16 mi WSW 4.6 mph - -  
12:00 PM 59.0 °F 46.4 °F 63% 29.86 in 6.2 mi WNW 3.5 mph - N/A   Partly Cloudy
12:30 PM 55.4 °F 44.6 °F 67% 29.86 in 6.2 mi SSW 9.2 mph - N/A   Partly Cloudy
1:00 PM 57 °F 48 °F 62% 29.85 in 9 mi SW 10.4 mph - -   Overcast
1:00 PM 55.4 °F 46.4 °F 72% 29.83 in 6.2 mi SW 9.2 mph - N/A   Partly Cloudy
1:30 PM 55.4 °F 48.2 °F 77% 29.83 in 6.2 mi SSW 8.1 mph - N/A   Partly Cloudy
2:00 PM 57 °F 49 °F 67% 29.84 in 10 mi SW 10.4 mph - -  
2:00 PM 55.4 °F 46.4 °F 72% 29.83 in 6.2 mi SSW 9.2 mph - N/A   Partly Cloudy
2:30 PM 57.2 °F 46.4 °F 67% 29.80 in 6.2 mi SSW 5.8 mph - N/A   Partly Cloudy
3:00 PM 59 °F 48 °F 57% 29.81 in 19 mi SW 8.1 mph - -  
3:00 PM 57.2 °F 46.4 °F 67% 29.80 in 6.2 mi SW 5.8 mph - N/A   Partly Cloudy
3:30 PM 57.2 °F 48.2 °F 72% 29.80 in 6.2 mi South 6.9 mph - N/A   Partly Cloudy
4:00 PM 58 °F 48 °F 61% 29.80 in 16 mi SW 8.1 mph - -   Scattered Clouds
4:00 PM 57.2 °F 48.2 °F 72% 29.80 in 6.2 mi SSW 5.8 mph - N/A   Partly Cloudy
4:30 PM 57.2 °F 48.2 °F 72% 29.77 in 6.2 mi South 5.8 mph - N/A   Partly Cloudy
5:00 PM 59 °F 48 °F 58% 29.79 in 19 mi SSW 5.8 mph - -  
5:00 PM 57.2 °F 46.4 °F 67% 29.77 in 6.2 mi South 6.9 mph - N/A   Partly Cloudy
5:30 PM 57.2 °F 46.4 °F 67% 29.77 in 6.2 mi South 4.6 mph - N/A   Partly Cloudy
6:00 PM 59 °F 48 °F 57% 29.80 in 14 mi SSW 4.6 mph - -  
6:00 PM 57.2 °F 46.4 °F 67% 29.80 in 6.2 mi Variable 2.3 mph - N/A   Partly Cloudy
6:30 PM 55.4 °F 48.2 °F 77% 29.80 in 6.2 mi East 5.8 mph - N/A   Partly Cloudy
7:00 PM 55 °F 50 °F 76% 29.81 in 12 mi East 5.8 mph - -   Scattered Clouds
7:00 PM 55.4 °F 50.0 °F 82% 29.80 in 6.2 mi East 3.5 mph - N/A   Partly Cloudy
7:30 PM 53.6 °F 50.0 °F 88% 29.80 in 6.2 mi East 4.6 mph - N/A   Partly Cloudy
8:00 PM 54 °F 50 °F 82% 29.82 in 8 mi East 6.9 mph - -  
8:00 PM 53.6 °F 50.0 °F 88% 29.80 in - East 3.5 mph - N/A   Clear
8:30 PM 51.8 °F 50.0 °F 94% 29.80 in - East 4.6 mph - N/A   Clear
9:00 PM 53 °F 49 °F 80% 29.82 in 6 mi ENE 2.3 mph - -  
9:00 PM 51.8 °F 48.2 °F 88% 29.80 in - Variable 1.2 mph - N/A   Clear
9:30 PM 50.0 °F 46.4 °F 87% 29.80 in 5.6 mi Calm Calm - N/A   Unknown
10:00 PM 50 °F 47 °F 85% 29.82 in 6 mi NNW 1.2 mph - -   Mist
10:00 PM 50.0 °F 46.4 °F 87% 29.80 in 5.6 mi North 3.5 mph - N/A   Partly Cloudy
10:30 PM 50.0 °F 46.4 °F 87% 29.80 in 5.0 mi NNW 5.8 mph - N/A   Partly Cloudy
11:00 PM 50 °F 46 °F 83% 29.82 in 6 mi North 6.9 mph - -   Mist
11:00 PM 50.0 °F 46.4 °F 87% 29.80 in 5.6 mi NNE 4.6 mph - N/A   Unknown
11:30 PM 48.2 °F 46.4 °F 93% 29.83 in 5.6 mi NW 3.5 mph - N/A   Unknown